Погода в Порече

Хорватия     45°13′46″N   13°35′59″E
темп.,
°C
ветер,
м/с
пор.,
м/с
влажн.,
%
обл.,
%
осадки,
мм/ч
давл.,
гПа
погр.,
м
6 мая, чт
чт623:00+16юз6982100 0.7 1008127
02:00+15юз3584100 1.8 1010114
05:00+15ююв5685100 1.0 1010301
08:00+12вюв7881100 1.2 1012294
11:00+15юв7969100 0.0 1013700
14:00+15ююв91072100 0.0 1012543
17:00+16ююв81173100 0.0 1010396
20:00+16юв91179100 0.1 1009274
7 мая, пт
пт723:00+16юз61085100 0.0 1009237
02:00+16юз71575100 0.0 1009694
05:00+16ююз101574100 0.0 1007677
08:00+16юз91378100 0.1 1008659
11:00+15зсз2484100 0.6 1009245
14:00+15зюз1182100 0.6 1009155
17:00+16всв1180100 0.3 1008135
20:00+15всв5785100 0.9 1010192
8 мая, сб
сб823:00+13всв4685100 2.2 1013314
02:00+12всв3477100 2.3 1015345
05:00+12всв3372100 0.0 1017267
08:00+11св3369100 0.0 1020266
11:00+13в0155100 0.0 1021301
14:00+13з336970 0.0 1021273
17:00+15з436485 0.0 1020324
20:00+15зсз336621 0.0 1020254
9 мая, вс
вс923:00+14св33715 0.0 1021121
02:00+13св227336 0.0 102196
05:00+13св22705 0.0 1020105
08:00+13св11633 0.0 1020117
11:00+15сз22610 0.0 1020226
14:00+15зсз22595 0.0 1020197
17:00+16ююз22550 0.0 1019210
20:00+16ююв226437 0.0 101888
10 мая, пн
пн1023:00+15юв347442 0.0 101993
02:00+14вюв336625 0.0 1019109
05:00+14вюв45670 0.0 1017134
08:00+15в34680 0.0 1018155
11:00+17ююв47750 0.0 1018315
14:00+18ю6875100 0.0 1017322
17:00+18ююв6972100 0.0 1016239
20:00+17вюв3472100 0.0 101543